Погода в Сон Пэне

Китай     32°38′18″N   103°35′47″E
темп.,
°C
ветер,
м/с
пор.,
м/с
влажн.,
%
обл.,
%
осадки,
мм/ч
давл.,
гПа
погр.,
м
11 мая, вт
вт1123:00+3в2286100 0.3 1012304
02:00+2с1181100 0.3 101256
05:00+1ссз239499 0.3 1014116
08:00+2ссз2293100 0.4 1015206
11:00+7ссз3458100 0.1 10131332
14:00+9ссз344682 0.2 10091697
17:00+12с443534 0.0 10042314
20:00+6вюв215768 0.0 100712
12 мая, ср
ср1223:00+3юв2293100 0.0 101325
02:00+2юв1197100 0.1 101326
05:00+2с0094100 0.0 101237
08:00+5зюз0174100 0.0 1011453
11:00+10ю2352100 0.0 10081475
14:00+12ю234499 0.1 10041640
17:00+11всв325198 0.1 10031432
20:00+7в238017 0.9 1007250
13 мая, чт
чт1323:00+6св1186100 0.9 101089
02:00+5сз1285100 1.7 1009115
05:00+3з119282 0.0 100910
08:00+6зюз117925 0.0 1009311
11:00+13ю224514 0.0 10041618
14:00+15ююв2235100 0.0 9982450
17:00+11вюв225973 1.4 1000990
20:00+8юв3382100 3.5 100370
14 мая, пт
пт1423:00+5ююв2294100 0.1 100638
02:00+3ююв11947 0.1 100611
05:00+2ю119716 0.0 100610
08:00+5ю118756 0.0 1005286
11:00+12ююв225612 0.0 10011095
14:00+15юв444684 0.7 9961892
17:00+13юв4455100 1.2 9961198
20:00+8вюв2378100 1.3 1001225
15 мая, сб
сб1523:00+7юв2482100 0.1 1004472
02:00+6ююв229270 0.1 1004110
05:00+6юв1290100 0.1 100473
08:00+7юв2284100 0.1 1005450
11:00+9в2372100 0.3 1004797
14:00+11юв346292 2.9 10001176
17:00+9в4576100 1.8 1000805
20:00+1ссв2495100 0.1 1012271